Volver al catálogo

ONEWEB-0708

ActivoComunicacionesPO
NORAD 61613·PAYLOAD·🇬🇧 United Kingdom

Lanzado Oct 20, 2024 desde Vandenberg Space Force Base

Loading…

Próximos Pases (próximas 24 horas)

TLE

ActualizadoSource: CelesTrak SupGP

Época: Sep 14, 2026, 21:27 UTC

1 61613C 24188V   26257.89427500 -.00000356  00000+0 -10202-2 0  2576
2 61613  87.8891  18.4146 0001732 121.2993 301.3042 13.10368587    10

Sigue ONEWEB-0708 en tiempo real con AllMySat

Download on the App Store